Le nostre stazioni meteo in Italia

Pubblicità
Il mio iltempo24.it
S. Maria Di Leuca, Italia (16360): Temperatura & dewpoint: 20.08.2019 12:00:00 - 26.08.2019 12:00:00 (CEST)S. Maria Di Leuca, Italia (16360): velocità del vento: 20.08.2019 12:00:00 - 26.08.2019 12:00:00 (CEST)S. Maria Di Leuca, Italia (16360): direzione del vento: 20.08.2019 12:00:00 - 26.08.2019 12:00:00 (CEST)S. Maria Di Leuca, Italia (16360): reduced air pressure: 20.08.2019 12:00:00 - 26.08.2019 12:00:00 (CEST)S. Maria Di Leuca, Italia (16360): visibility: 20.08.2019 12:00:00 - 26.08.2019 12:00:00 (CEST)S. Maria Di Leuca, Italia (16360): ore di luce: 20.08.2019 12:00:00 - 26.08.2019 12:00:00 (CEST)
Data & Tempo tt [°C] td [°C] ff [km/h] ff [kn] dd ppp [hPa] vv [km] sd [min]
26.08.2019 12:00:00 29,2 27,4 11 6 SSO 1015,1 10 60
26.08.2019 11:00:00 29,6 27,2 4 2 N 1015,0 10 60
26.08.2019 10:00:00 29,0 26,2 8 4 NE 1014,6 10 60
26.08.2019 09:00:00 27,0 24,7 18 10 N 1014,4 10 60
26.08.2019 08:00:00 26,4 23,7 24 13 NNE 1014,2 10 24
26.08.2019 07:00:00 - - - - - - - -
26.08.2019 06:00:00 - - - - - - - -
26.08.2019 05:00:00 - - - - - - - -
26.08.2019 04:00:00 - - - - - - - -
26.08.2019 03:00:00 - - - - - - - -
26.08.2019 02:00:00 - - - - - - - -
26.08.2019 01:00:00 - - - - - - - -
26.08.2019 00:00:00 - - - - - - - -
25.08.2019 23:00:00 - - - - - - - -
25.08.2019 22:00:00 - - - - - - - -
25.08.2019 21:00:00 - - - - - - - -
25.08.2019 20:00:00 27,6 24,9 5 3 O 1015,0 10 0
25.08.2019 19:00:00 28,0 25,8 9 5 O 1014,5 10 60
25.08.2019 18:00:00 28,6 26,0 15 8 OSO 1014,8 10 60
25.08.2019 17:00:00 28,8 26,4 11 6 O 1014,8 10 60
25.08.2019 16:00:00 29,0 27,2 9 5 SO 1014,6 10 60
25.08.2019 15:00:00 29,0 27,6 9 5 OSO 1014,5 10 60
25.08.2019 14:00:00 28,8 27,9 11 6 OSO 1014,7 10 60
25.08.2019 13:00:00 28,6 26,8 13 7 OSO 1014,8 10 60
25.08.2019 12:00:00 29,4 28,0 9 5 SSO 1014,8 10 60
25.08.2019 11:00:00 29,0 26,2 8 4 S 1014,8 10 60
25.08.2019 10:00:00 28,2 25,2 15 8 NNE 1014,8 10 60
25.08.2019 09:00:00 27,0 24,7 18 10 NNE 1014,8 10 60
25.08.2019 08:00:00 26,6 23,7 21 11 NNE 1014,6 10 30
25.08.2019 07:00:00 - - - - - - - -
25.08.2019 06:00:00 - - - - - - - -
25.08.2019 05:00:00 - - - - - - - -
25.08.2019 04:00:00 - - - - - - - -
25.08.2019 03:00:00 - - - - - - - -
25.08.2019 02:00:00 - - - - - - - -
25.08.2019 01:00:00 - - - - - - - -
25.08.2019 00:00:00 - - - - - - - -
24.08.2019 23:00:00 - - - - - - - -
24.08.2019 22:00:00 - - - - - - - -
24.08.2019 21:00:00 - - - - - - - -
24.08.2019 20:00:00 28,4 24,6 13 7 NE 1013,3 20 0
24.08.2019 19:00:00 28,8 27,4 8 4 ENE 1013,2 20 60
24.08.2019 18:00:00 29,0 26,2 8 4 ENE 1013,7 20 60
24.08.2019 17:00:00 29,0 27,0 5 3 SO 1013,9 20 60
24.08.2019 16:00:00 29,0 27,6 9 5 SO 1014,3 20 60
24.08.2019 15:00:00 29,4 28,5 11 6 OSO 1014,6 20 60
24.08.2019 14:00:00 30,0 28,0 13 7 OSO 1014,8 20 60
24.08.2019 13:00:00 30,0 25,7 16 9 NE 1014,8 20 60
24.08.2019 12:00:00 30,0 26,6 18 10 ENE 1014,8 20 60
24.08.2019 11:00:00 29,8 24,9 9 5 ENE 1014,9 20 60
24.08.2019 10:00:00 28,4 26,0 15 8 NNE 1014,9 20 60
24.08.2019 09:00:00 27,4 25,0 22 12 NNE 1014,9 20 60
24.08.2019 08:00:00 27,0 24,3 22 12 NNE 1014,9 20 18
24.08.2019 07:00:00 - - - - - - - -
24.08.2019 06:00:00 - - - - - - - -
24.08.2019 05:00:00 - - - - - - - -
24.08.2019 04:00:00 - - - - - - - -
24.08.2019 03:00:00 - - - - - - - -
24.08.2019 02:00:00 - - - - - - - -
24.08.2019 01:00:00 - - - - - - - -
24.08.2019 00:00:00 - - - - - - - -
23.08.2019 23:00:00 - - - - - - - -
23.08.2019 22:00:00 - - - - - - - -
23.08.2019 21:00:00 - - - - - - - -
23.08.2019 20:00:00 29,0 26,6 15 8 N 1014,1 20 0
23.08.2019 19:00:00 29,2 27,8 13 7 N 1014,8 20 0
23.08.2019 18:00:00 29,2 28,3 4 2 S 1014,8 20 60
23.08.2019 17:00:00 30,4 28,6 9 5 OSO 1015,0 20 60
23.08.2019 16:00:00 29,0 26,2 11 6 OSO 1015,3 20 60
23.08.2019 15:00:00 30,0 27,4 9 5 ENE 1015,7 20 60
23.08.2019 14:00:00 29,0 27,0 4 2 OSO 1016,0 20 60
23.08.2019 13:00:00 30,0 28,2 13 7 OSO 1016,1 20 60
23.08.2019 12:00:00 30,0 27,4 9 5 O 1016,1 20 60
23.08.2019 11:00:00 29,4 23,4 11 6 NNE 1016,1 20 60
23.08.2019 10:00:00 28,4 25,4 9 5 NNE 1016,1 20 60
23.08.2019 09:00:00 28,0 25,6 18 10 NNE 1016,1 20 60
23.08.2019 08:00:00 27,6 25,2 22 12 NNE 1015,8 20 60
23.08.2019 07:00:00 - - - - - - - -
23.08.2019 06:00:00 - - - - - - - -
23.08.2019 05:00:00 - - - - - - - -
23.08.2019 04:00:00 - - - - - - - -
23.08.2019 03:00:00 - - - - - - - -
23.08.2019 02:00:00 - - - - - - - -
23.08.2019 01:00:00 - - - - - - - -
23.08.2019 00:00:00 - - - - - - - -
22.08.2019 23:00:00 - - - - - - - -
22.08.2019 22:00:00 - - - - - - - -
22.08.2019 21:00:00 - - - - - - - -
22.08.2019 20:00:00 28,0 26,2 8 4 NE 1015,7 20 0
22.08.2019 19:00:00 28,6 23,3 4 2 O 1015,3 20 60
22.08.2019 18:00:00 28,8 21,6 9 5 SO 1015,7 20 60
22.08.2019 17:00:00 29,0 20,7 9 5 SO 1015,8 20 60
22.08.2019 16:00:00 29,2 20,1 9 5 S 1016,0 20 60
22.08.2019 15:00:00 29,8 19,5 9 5 SSE 1016,1 20 60
22.08.2019 14:00:00 30,0 19,7 9 5 S 1016,1 20 60
22.08.2019 13:00:00 30,2 18,3 9 5 SE 1016,9 20 60
22.08.2019 12:00:00 29,2 18,3 9 5 SE 1016,9 20 60
22.08.2019 11:00:00 28,2 25,2 13 7 ENE 1016,9 20 54
22.08.2019 10:00:00 27,2 25,0 18 10 ENE 1016,5 20 60
22.08.2019 09:00:00 26,6 23,9 22 12 ENE 1015,7 15 60
22.08.2019 08:00:00 26,2 23,3 24 13 ENE 1015,7 12 48
22.08.2019 07:00:00 - - - - - - - -
22.08.2019 06:00:00 - - - - - - - -
22.08.2019 05:00:00 - - - - - - - -
22.08.2019 04:00:00 - - - - - - - -
22.08.2019 03:00:00 - - - - - - - -
22.08.2019 02:00:00 - - - - - - - -
22.08.2019 01:00:00 - - - - - - - -
22.08.2019 00:00:00 - - - - - - - -
21.08.2019 23:00:00 - - - - - - - -
21.08.2019 22:00:00 - - - - - - - -
21.08.2019 21:00:00 - - - - - - - -
21.08.2019 20:00:00 27,6 26,4 9 5 O 1014,5 10 0
21.08.2019 19:00:00 28,0 26,6 13 7 O 1014,5 20 -
21.08.2019 18:00:00 28,0 25,4 9 5 OSO 1014,9 20 -
21.08.2019 17:00:00 28,0 25,4 8 4 SO 1014,0 10 60
21.08.2019 16:00:00 27,8 26,4 9 5 SO 1015,7 20 60
21.08.2019 15:00:00 27,8 26,4 11 6 SO 1015,7 20 60
21.08.2019 14:00:00 27,4 25,4 11 6 OSO 1015,9 20 60
21.08.2019 13:00:00 26,8 25,0 13 7 SO 1016,3 20 60
21.08.2019 12:00:00 26,8 25,0 11 6 SO 1016,4 10 -
21.08.2019 11:00:00 26,8 25,8 9 5 SSO 1016,3 20 60
21.08.2019 10:00:00 26,0 25,1 8 4 SSE 1016,3 20 60
21.08.2019 09:00:00 26,8 25,9 5 3 ENE 1016,4 20 60
21.08.2019 08:00:00 26,2 24,6 4 2 ENE 1016,3 20 60
21.08.2019 07:00:00 - - - - - - - -
21.08.2019 06:00:00 - - - - - - - -
21.08.2019 05:00:00 - - - - - - - -
21.08.2019 04:00:00 - - - - - - - -
21.08.2019 03:00:00 - - - - - - - -
21.08.2019 02:00:00 - - - - - - - -
21.08.2019 01:00:00 - - - - - - - -
21.08.2019 00:00:00 - - - - - - - -
20.08.2019 23:00:00 - - - - - - - -
20.08.2019 22:00:00 - - - - - - - -
20.08.2019 21:00:00 - - - - - - - -
20.08.2019 20:00:00 27,0 26,3 5 3 O 1017,0 10 0
20.08.2019 19:00:00 27,4 26,3 9 5 O 1017,0 10 60
20.08.2019 18:00:00 28,0 27,7 13 7 OSO 1017,0 12 60
20.08.2019 17:00:00 28,2 26,6 11 6 O 1017,1 10 60
20.08.2019 16:00:00 28,0 25,2 15 8 OSO 1017,2 10 60
20.08.2019 15:00:00 28,0 26,2 11 6 OSO 1017,3 10 60
20.08.2019 14:00:00 28,0 26,2 9 5 SSO 1017,3 10 60
20.08.2019 13:00:00 29,0 24,8 8 4 ESE 1017,3 12 60
20.08.2019 12:00:00 28,8 25,4 11 6 ENE 1017,2 12 60

tt = Temperatura
td = dewpoint
ff = velocità del vento
dd = direzione del vento
ppp = reduced air pressure
vv = visibility
sd = ore di luce

Stazioni seguenti

WeatherPro
AMSI
MeteoEarth